Weather History for East Milton, MA

Change the Weather History Date:

Saturday, October 20, 2012

  Actual Average (KBOS) Record (KBOS)
Temperature  
Mean Temperature 64 °F 53 °F  
Max Temperature 73 °F 60 °F 79 °F (1969)
Min Temperature 55 °F 45 °F 32 °F (1972)
Degree Days  
Heating Degree Days 0 13  
Month to date heating degree days 193  
Since 1 July heating degree days 290  
Cooling Degree Days 0 0  
Month to date cooling degree days 6  
Year to date cooling degree days 746  
Growing Degree Days 14 (Base 50)    
Moisture  
Dew Point 57 °F    
Average Humidity 78    
Maximum Humidity 97    
Minimum Humidity 38    
Precipitation  
Precipitation 0.14 in 0.13 in 6.11 in (1996)
Month to date precipitation 2.55  
Year to date precipitation 34.61  
Sea Level Pressure  
Sea Level Pressure 29.71 in    
Wind  
Wind Speed 11 mph (South)    
Max Wind Speed 17 mph    
Max Gust Speed 25 mph    
T = Trace of Precipitation, MM = Missing Value Source: NWS Daily Summary

Daily Weather History Graph

Daily Weather History Graph

Search for Another Location

Airport:

Trip Planner

Search our weather history database for the weather conditions in past years. The results will help you decide how hot, cold, wet, or windy it might be!

Date:

Astronomy

Oct. 20, 2012 Rise Set
Actual Time 7:03 AM EDT 5:54 PM EDT
Civil Twilight 6:35 AM EDT 6:22 PM EDT
Nautical Twilight 6:02 AM EDT 6:55 PM EDT
Astronomical Twilight 5:29 AM EDT 7:27 PM EDT
Moon 12:40 PM EDT (10/20) 10:33 PM EDT (10/20)
Length of Visible Light 11h 47m
Length of Day
10h 50m
Waxing Crescent, 34% of the Moon is Illuminated
Oct 20
Waxing Crescent
Oct 21
First Quarter
Oct 29
Full
Nov 6
Last Quarter
Nov 13
New

Hourly Weather History & Observations

Time (EDT) Temp. Dew Point Humidity Pressure Visibility Wind Dir Wind Speed Gust Speed Precip Events Conditions
12:54 AM 64.9 °F 64.0 °F 97% 29.79 in - SSE 12.7 mph 20.7 mph 0.01 in   Unknown
1:54 AM 64.0 °F 63.0 °F 96% 29.75 in - SSE 11.5 mph 20.7 mph 0.06 in   Unknown
2:54 AM 64.0 °F 63.0 °F 96% 29.73 in - SSE 12.7 mph - N/A   Unknown
3:54 AM 64.9 °F 63.0 °F 93% 29.76 in - South 10.4 mph - 0.03 in   Unknown
4:54 AM 64.9 °F 63.0 °F 93% 29.75 in - SSE 4.6 mph - 0.04 in   Unknown
5:54 AM 64.0 °F 63.0 °F 96% 29.72 in - SSE 6.9 mph - N/A   Unknown
6:54 AM 64.0 °F 63.0 °F 96% 29.71 in - SSE 8.1 mph - N/A   Unknown
7:54 AM 64.0 °F 63.0 °F 96% 29.71 in - SSE 8.1 mph - N/A   Unknown
8:54 AM 64.0 °F 63.0 °F 96% 29.71 in - South 9.2 mph - N/A   Unknown
9:54 AM 66.0 °F 64.0 °F 93% 29.70 in - SSE 9.2 mph - N/A   Unknown
10:54 AM 66.0 °F 64.0 °F 93% 29.70 in - SSW 11.5 mph - N/A   Unknown
11:54 AM 68.0 °F 61.0 °F 78% 29.69 in - SW 12.7 mph 19.6 mph N/A   Unknown
12:54 PM 71.1 °F 60.1 °F 68% 29.67 in - SSW 11.5 mph - N/A   Unknown
1:54 PM 70.0 °F 57.0 °F 63% 29.65 in - SSW 10.4 mph - N/A   Unknown
2:54 PM 72.0 °F 50.0 °F 46% 29.65 in - SSW 15.0 mph 25.3 mph N/A   Unknown
3:54 PM 72.0 °F 45.0 °F 38% 29.64 in - SSW 17.3 mph 24.2 mph N/A   Unknown
4:54 PM 71.1 °F 45.0 °F 39% 29.65 in - SW 13.8 mph 21.9 mph N/A   Unknown
5:54 PM 66.9 °F 45.0 °F 45% 29.66 in - SSW 13.8 mph - N/A   Unknown
6:54 PM 63.0 °F 52.0 °F 67% 29.68 in - South 13.8 mph 20.7 mph N/A   Unknown
7:54 PM 61.0 °F 55.0 °F 81% 29.70 in - South 13.8 mph - N/A   Unknown
8:54 PM 59.0 °F 54.0 °F 83% 29.72 in - SSW 12.7 mph - N/A   Unknown
9:54 PM 57.9 °F 52.0 °F 81% 29.74 in - WSW 12.7 mph - N/A   Unknown
10:54 PM 57.0 °F 46.0 °F 67% 29.75 in - WSW 13.8 mph 19.6 mph N/A   Unknown
11:54 PM 55.0 °F 42.1 °F 62% 29.76 in - West 15.0 mph - N/A   Unknown